User: anonymous   Login
Location: Unspecified
(0.0000°N, 0.0000°E)
Time: 13:19:46
(UTC+00:00)
Language:

Oscar 19 - Orbit

View from above orbital plane
View from above orbital plane
View from above satellite
View from above satellite

Ground track
Ground track

The orbit data is extracted from the following two-line orbital elements,

1 20442U 90005G   19286.90856301 +.00000004 +00000-0 +17660-4 0  9992
2 20442 098.6584 228.7608 0012044 158.8209 201.3476 14.32934988553109
Epoch (UTC): 13 October 2019 21:48:19
Eccentricity: 0.0012044
inclination: 98.6584°
perigee height: 773 km
apogee height: 790 km
right ascension of ascending node: 228.7608°
argument of perigee: 158.8209°
revolutions per day: 14.32934988
mean anomaly at epoch: 201.3476°
orbit number at epoch: 55310

The dashed part of the orbit path shows where the satellite is in the earth's shadow,  

DLR